Flag for Germany Weather past 2 weeks in Recklinghausen, North Rhine-Westphalia, Germany

49 °F

Light rain. Low clouds.

Feels Like: 47 °F
Forecast: 47 / 51 °F
Wind: 6 mph from Northwest

Location: Duesseldorf

Current Time: Dec 1, 2015 at 5:20:27 AM

Latest Report: Dec 1, 2015 at 4:00 AM

Visibility: 4 mi

Pressure: 30.07 "Hg

Humidity: 88%

Dew point: 46 °F

Location of RecklinghausenLocation

Historic Weather in Recklinghausen — Graph


Recklinghausen temperature yesterday

Maximum temperature yesterday: 52 °F (at 6:00 PM)
Minimum temperature yesterday: 45 °F (at 9:00 AM)
Average temperature yesterday: 49 °F

Past Weeks' High & Low Weather Summary

High60 °F (Nov 17, 11:00 PM)99% (Nov 26, 9:00 AM)30.28 "Hg (Nov 26, 9:00 AM)
Low32 °F (Nov 22, 8:00 AM)62% (Nov 18, 4:00 AM)29.38 "Hg (Nov 21, 1:00 PM)
Average45 °F83%29.87 "Hg
* Reported Nov 16 8:00 AM — Dec 1 4:00 AM, Recklinghausen, Weather by CustomWeather, © 2015

Note: Actual official high and low records may vary slightly from our data, if they occured in-between our weather recording intervals... More about our weather records


Recklinghausen weather history for previous 24 hours

Time TempWeatherWind HumidityBarometerVisibility
4:00 AM
Tue, Dec 1
49 °FLight rain. Low clouds.6 mph88%30.07 "Hg4 mi
3:00 AM52 °FLight rain. Overcast.6 mph94%30.05 "Hg9 mi
10:00 PM
Mon, Nov 30
51 °FLight rain. Low clouds.13 mph94%29.91 "Hg3 mi
9:00 PM51 °FLight rain. Overcast.13 mph92%29.89 "Hg7 mi
8:00 PM51 °FLight rain. Overcast.15 mph92%29.88 "Hg7 mi
7:00 PM51 °FRain. Low clouds.13 mph91%29.88 "Hg7 mi
6:00 PM52 °FLight rain. Overcast.13 mph82%29.89 "Hg12 mi
5:00 PM50 °FLight rain. Overcast.12 mph91%29.90 "Hg7 mi
3:00 PM51 °FLight rain. Low clouds.13 mph91%29.95 "Hg4 mi
2:00 PM50 °FRain. Low clouds.9 mph96%29.98 "Hg3 mi
1:00 PM47 °FLight rain. Low clouds.6 mph96%30.01 "Hg4 mi
12:00 PM46 °FLight rain. Overcast.5 mph90%30.06 "Hg7 mi
11:00 AM46 °FLight rain. Overcast.7 mph80%30.09 "Hg15 mi
10:00 AM46 °FOvercast.5 mph77%30.10 "Hg22 mi
9:00 AM45 °FOvercast.5 mph78%30.11 "Hg22 mi
8:00 AM47 °FOvercast.6 mph69%30.10 "Hg25 mi
7:00 AM47 °FOvercast.6 mph69%30.07 "Hg22 mi
Weather by CustomWeather, © 2015

See weather overviewHow to use our weather pages